Location: Cactus School
(34.5700°N, 118.0931°W)
Time: 08:16:35
(UTC-07:00)

S-56A Canister/Altair - Pass Details

Date: 22 April 2024
Orbit: 638 x 2488 km, 38.9° (Epoch: 29 May)

Event Time Altitude Azimuth Distance (km) Brightness Sun altitude
Rises 22:45:02 0° 288° (WNW) 4,114 12.0 -34.1°
Reaches altitude 10° 22:47:35 10° 282° (WNW) 3,365 11.3 -34.4°
Enters shadow 22:55:35 48° 217° (SW) 2,153 9.5 -35.4°
Maximum altitude 22:55:56 48° 211° (SSW) 2,169 - -35.4°
Drops below altitude 10° 23:07:57 10° 143° (SE) 4,770 - -36.8°
Sets 23:12:19 0° 139° (SE) 5,953 - -37.3°
